IRIDIUM 70 [P]

Last updated on Sept. 26, 2018, 2:52 a.m. UTC

1 25342U 98032A   18267.91516892  .00168687  49140-5  82209-3 0  9996
2 25342  86.4200  29.8271 0334630 356.2587   3.6160 15.31656778 65480

Satellite is not in orbit.